Del Rio, TX

2:03 AM CDT on August 24, 2016 (GMT -0500)
Del Rio International

Weather History for KDRT - January, 2014

Change the Weather History Date:

Thursday, January 30, 2014

  Actual Average Record
Temperature  
Mean Temperature 49 °F 54 °F  
Max Temperature 65 °F 65 °F 91 °F (1911)
Min Temperature 32 °F 42 °F 18 °F (1949)
Degree Days  
Heating Degree Days 16 12  
Month to date heating degree days 454 391  
Since 1 July heating degree days 1142 982  
Cooling Degree Days 0 0  
Month to date cooling degree days 0 0  
Year to date cooling degree days 0 0  
Moisture  
Dew Point 30 °F    
Average Humidity 49    
Maximum Humidity 64    
Minimum Humidity 34    
Precipitation  
Precipitation 0.00 in 0.03 in 0.33 in (1977)
Month to date precipitation T 0.70  
Year to date precipitation T 0.70  
Sea Level Pressure  
Sea Level Pressure 29.99 in    
Wind  
Wind Speed 11 mph (ESE)    
Max Wind Speed 17 mph    
Max Gust Speed 25 mph    
Visibility 10 miles    
Events      
T = Trace of Precipitation, MM = Missing Value Source: NWS Daily Summary

Daily Weather History Graph

Daily Weather History Graph

Search for Another Location

Airport or City:

Trip Planner

Search our weather history database for the weather conditions in past years. The results will help you decide how hot, cold, wet, or windy it might be!

Date:

Astronomy

Jan. 30, 2014 Rise Set
Actual Time 7:34 AM CST 6:20 PM CST
Civil Twilight 7:09 AM CST 6:45 PM CST
Nautical Twilight 6:40 AM CST 7:13 PM CST
Astronomical Twilight 6:12 AM CST 7:42 PM CST
Moon 7:04 AM CST (1/30) 6:29 PM CST (1/30)
Length of Visible Light 11h 36m
Length of Day
10h 46m
Waning Crescent, 0% of the Moon is Illuminated
Jan 30
Waning Crescent
Jan 30
New
Feb 6
First Quarter
Feb 14
Full
Feb 22
Last Quarter

Hourly Weather History & Observations

Time (CST) Temp. Windchill Dew Point Humidity Pressure Visibility Wind Dir Wind Speed Gust Speed Precip Events Conditions
12:53 AM 36.0 °F 28.0 °F 14.0 °F 41% 30.17 in 10.0 mi ESE 11.5 mph - N/A   Clear
1:53 AM 35.1 °F 27.9 °F 15.1 °F 44% 30.14 in 10.0 mi ESE 9.2 mph - N/A   Clear
2:53 AM 35.1 °F 27.4 °F 15.1 °F 44% 30.12 in 10.0 mi ESE 10.4 mph - N/A   Clear
3:53 AM 34.0 °F 26.0 °F 16.0 °F 48% 30.10 in 10.0 mi ESE 10.4 mph - N/A   Clear
4:53 AM 32.0 °F 23.0 °F 17.1 °F 54% 30.09 in 10.0 mi East 11.5 mph - N/A   Clear
5:53 AM 33.1 °F 24.9 °F 19.0 °F 56% 30.08 in 10.0 mi ESE 10.4 mph - N/A   Clear
6:53 AM 34.0 °F 26.6 °F 21.0 °F 59% 30.09 in 10.0 mi ESE 9.2 mph - N/A   Clear
7:53 AM 34.0 °F 28.0 °F 23.0 °F 64% 30.10 in 10.0 mi ESE 6.9 mph - N/A   Clear
8:53 AM 37.9 °F 30.9 °F 26.1 °F 62% 30.09 in 10.0 mi SE 10.4 mph - N/A   Clear
9:53 AM 43.0 °F 35.4 °F 28.0 °F 56% 30.09 in 10.0 mi SE 16.1 mph 19.6 mph N/A   Clear
10:53 AM 46.9 °F - 30.0 °F 52% 30.07 in 10.0 mi SE 12.7 mph 23.0 mph N/A   Clear
11:53 AM 52.0 °F - 28.9 °F 41% 30.03 in 10.0 mi SE 12.7 mph - N/A   Clear
12:53 PM 55.0 °F - 30.9 °F 40% 29.99 in 10.0 mi SSE 10.4 mph - N/A   Clear
1:53 PM 57.9 °F - 32.0 °F 37% 29.94 in 10.0 mi South 9.2 mph - N/A   Clear
2:53 PM 61.0 °F - 33.1 °F 35% 29.90 in 10.0 mi SSE 16.1 mph 20.7 mph N/A   Clear
3:53 PM 64.0 °F - 36.0 °F 35% 29.88 in 10.0 mi SE 12.7 mph - N/A   Clear
4:53 PM 64.9 °F - 37.9 °F 37% 29.86 in 10.0 mi SE 15.0 mph - N/A   Clear
5:53 PM 64.9 °F - 39.0 °F 39% 29.85 in 10.0 mi SE 10.4 mph - N/A   Clear
6:53 PM 61.0 °F - 37.9 °F 42% 29.85 in 10.0 mi ESE 6.9 mph - N/A   Clear
7:53 PM 60.1 °F - 39.9 °F 47% 29.86 in 10.0 mi East 9.2 mph - N/A   Clear
8:53 PM 57.9 °F - 39.9 °F 51% 29.87 in 10.0 mi East 10.4 mph - N/A   Clear
9:53 PM 57.0 °F - 39.9 °F 53% 29.87 in 10.0 mi East 9.2 mph - N/A   Clear
10:53 PM 54.0 °F - 39.9 °F 59% 29.87 in 10.0 mi East 6.9 mph - N/A   Clear
11:53 PM 53.1 °F - 41.0 °F 64% 29.86 in 10.0 mi East 9.2 mph - N/A   Clear